Location: *
(51.4660°N, 0.3360°W)
Time: 08:12:54
(UTC+00:00)

ASTEX 1 - Pass Details

Date: 19 September 2019
Orbit: 720 x 744 km, 92.7° (Epoch: 22 October)

Event Time Altitude Azimuth Distance (km) Brightness Sun altitude
Rises 19:48:19 0° 3° (N) 3,150 7.0 -16.1°
Reaches altitude 10° 19:50:37 10° 1° (N) 2,223 6.2 -16.4°
Maximum altitude 19:55:29 66° 280° (W) 788 3.8 -17.1°
Drops below altitude 10° 20:00:18 10° 199° (SSW) 2,205 5.8 -17.8°
Sets 20:02:35 0° 196° (SSW) 3,122 6.6 -18.1°
